New York, NY (10101)

11:33 AM EST on December 08, 2016 (GMT -0500)
New York Downtown Manhattan/w | | Change Station

Elev 7 ft 40.70 °N, 74.01 °W | Updated 18 minutes ago

Overcast
Overcast
43 °F
Feels Like 38 °F
N
9
Wind Variable Wind from WSW

Today
High -- | Low -- °F
--% Chance of Precip.
Yesterday
High -- | Low -- °F
Precip. -- in
Pressure 30.42 in
Visibility -9999.0 miles
Clouds Overcast 8000 ft
Windchill 38 °F
Dew Point 28 °F
Humidity 57%
Rainfall 0.01 in
Snow Depth Not available.
7:07 AM 4:28 PM
Waxing Gibbous, 64% visible
METAR KJRB 081615Z AUTO 24008KT OVC080 06/M02 A2995 RMK AO2 SLP300 PWINO FZRANO RVRNO
Pressure 30.42 in
Visibility -9999.0 miles
Clouds Overcast 8000 ft
Windchill 38 °F
Dew Point 28 °F
Humidity 57%
Rainfall 0.01 in
Snow Depth Not available.
7:07 AM 4:28 PM
Waxing Gibbous, 64% visible
METAR KJRB 081615Z AUTO 24008KT OVC080 06/M02 A2995 RMK AO2 SLP300 PWINO FZRANO RVRNO

10-Day Weather Forecast

Almanac

Astronomy

Dec. 08, 2016 Rise Set
Actual Time
Civil Twilight
Nautical Twilight
Astronomical Twilight
Moon
Length of Visible Light
Length of Day
Tomorrow will be .
, % of the Moon is Illuminated

Today's Extremes

State Highs State Lows

Community

WunderPhotos

Upload Photos

1,956,274 photos uploaded!

WunderBlog® & News

Nearby

Air Quality

  Air Quality AQ Index Pollutant
Not available.

Snow Depth

Station Depth Elevation

Earthquake Activity

City Distance Mag. Time & Date
Minimum magnitude displayed is 2.5.

Coastal Water Temperatures

Place Temperature

Stations

Nearby Weather Stations

Station Location Temp. Windchill Dew Point Humidity Wind Precip. Elev Updated Type
                   

Watches & Warnings

There are currently no watches in effect.